User: anonymous   Login
Location: Enborne
(51.3833°N, 1.3667°W)
Time: 16:44:52
(UTC+00:00)
Language:

COSMOS 2406 - Orbit

View from above orbital plane
View from above orbital plane
View from above satellite
View from above satellite

Ground track
Ground track

The orbit data is extracted from the following two-line orbital elements,

1 28352U 04021A   20333.56318352 -.00000038 +00000-0 +48805-5 0  9993
2 28352 071.0015 012.8520 0014839 352.5348 007.5549 14.11670300848675
Epoch (UTC): 28 November 2020 13:30:59
Eccentricity: 0.0014839
inclination: 71.0015°
perigee height: 843 km
apogee height: 864 km
right ascension of ascending node: 12.8520°
argument of perigee: 352.5348°
revolutions per day: 14.11670300
mean anomaly at epoch: 7.5549°
orbit number at epoch: 84867

The dashed part of the orbit path shows where the satellite is in the earth's shadow,  

DLR